Location: Moscow
(38.8570°N, 84.2291°W)
Time: 22:44:17
(UTC+00:00)

BlueWalker 3 - Visible Passes

Search period start: 17 January 2026 00:00
Search period end: 27 January 2026 00:00
Orbit: 451 x 463 km, 53.2° (Epoch: 17 January)

Date Brightness Start Highest point End Pass type
(mag) Time Alt. Az. Time Alt. Az. Time Alt. Az.
18 Jan 3.8 00:19:50 10° S 00:21:14 17° SSE 00:21:14 17° SSE visible
18 Jan 3.7 23:45:11 10° SSE 23:47:15 15° SE 23:47:52 14° ESE visible
19 Jan 4.7 01:20:54 10° WSW 01:21:39 15° WSW 01:21:39 15° WSW visible
19 Jan 4.0 23:11:05 10° SE 23:12:01 11° SE 23:12:55 10° ESE visible
20 Jan 2.5 00:45:27 10° SW 00:48:12 49° WSW 00:48:12 49° WSW visible
21 Jan 1.6 00:10:06 10° SW 00:13:39 81° SE 00:14:39 45° ENE visible
21 Jan 1.9 23:34:48 10° SW 23:38:18 58° SE 23:41:02 16° ENE visible
22 Jan 4.4 01:13:18 10° WNW 01:14:47 17° NW 01:14:47 17° NW visible
23 Jan 3.5 00:37:34 10° W 00:40:33 24° NNW 00:41:04 23° NNW visible
24 Jan 3.2 00:01:53 10° W 00:05:04 30° NNW 00:07:16 16° NNE visible
24 Jan 2.9 23:26:15 10° WSW 23:29:35 37° NW 23:32:57 10° NE visible
25 Jan 4.7 01:06:53 10° NNW 01:07:09 10° NNW 01:07:09 10° NNW visible
26 Jan 4.3 00:30:47 10° NW 00:32:19 12° NNW 00:33:14 11° N visible
26 Jan 4.2 23:54:45 10° NW 23:56:44 14° NNW 23:58:41 10° NNE visible
